DW9072 Weather Reports


time (UTC)temp
C
wind
direction
speed
KPH
gust
KPH
rain 1hr
cm
rain 24hr
cm
rain mn
cm
humidity
%
barometer
mb
20260507172311 15 326 0.0 0.0 0.00 0.00 0.00 55 1013.2
20260507171739 15 301 0.0 0.0 0.00 0.00 0.00 55 1013.1
20260507171240 15 306 0.0 0.0 0.00 0.00 0.00 54 1013.1
20260507170802 15 291 0.0 0.0 0.00 0.00 0.00 54 1013.1
20260507170242 15 261 0.0 0.0 0.00 0.00 0.00 55 1013.3
20260507165742 15 308 0.0 0.0 0.00 0.00 0.00 54 1013.4
20260507165241 15 257 0.0 0.0 0.00 0.00 0.00 54 1013.4
20260507164732 14 260 0.0 0.0 0.00 0.00 0.00 58 1013.2
20260507164252 14 259 0.0 0.0 0.00 0.00 0.00 58 1013.0
20260507163730 13 280 0.0 0.0 0.00 0.00 0.00 60 1013.0
20260507163234 13 281 0.0 0.0 0.00 0.00 0.00 60 1013.2
20260507162734 13 303 0.0 0.0 0.00 0.00 0.00 60 1013.1
20260507162238 13 261 0.0 0.0 0.00 0.00 0.00 61 1013.2
20260507161727 13 274 0.0 0.0 0.00 0.00 0.00 61 1013.3
20260507161228 13 279 0.0 0.0 0.00 0.00 0.00 61 1013.3
20260507160727 13 302 0.0 0.0 0.00 0.00 0.00 62 1013.4
20260507160250 13 316 0.0 0.0 0.00 0.00 0.00 63 1013.3
20260507155728 13 281 0.0 0.0 0.00 0.00 0.00 63 1013.3
20260507155251 13 312 0.0 0.0 0.00 0.00 0.00 63 1013.5
20260507154740 13 310 0.0 0.0 0.00 0.00 0.00 64 1013.4
20260507154243 12 303 0.0 0.0 0.00 0.00 0.00 64 1013.5
20260507153742 12 250 0.0 0.0 0.00 0.00 0.00 65 1013.4
20260507153243 12 258 0.0 0.0 0.00 0.00 0.00 64 1013.4
20260507152743 12 318 0.0 0.0 0.00 0.00 0.00 64 1013.4
20260507152246 12 225 0.0 0.0 0.00 0.00 0.00 66 1013.4
20260507151755 12 261 0.0 0.0 0.00 0.00 0.00 67 1013.5
20260507151255 12 295 0.0 0.0 0.00 0.00 0.00 68 1013.5
20260507150734 12 280 0.0 0.0 0.00 0.00 0.00 69 1013.5
20260507150256 11 249 0.0 0.0 0.00 0.00 0.00 69 1013.5
20260507145757 11 277 0.0 0.0 0.00 0.00 0.00 69 1013.3
20260507145237 11 249 0.0 0.0 0.00 0.00 0.00 70 1013.2
20260507144726 11 265 0.0 0.0 0.00 0.00 0.00 72 1013.2
20260507144248 11 292 0.0 0.0 0.00 0.00 0.00 72 1013.2
20260507143732 11 290 0.0 0.0 0.00 0.00 0.00 72 1013.2
20260507143254 11 310 0.0 0.0 0.00 0.00 0.00 72 1013.2
20260507142735 11 319 0.0 0.0 0.00 0.00 0.00 72 1013.3
20260507142259 11 294 0.0 0.0 0.00 0.00 0.00 73 1013.0
20260507141727 11 266 0.0 0.0 0.00 0.00 0.00 73 1012.9
20260507141227 11 274 0.0 0.0 0.00 0.00 0.00 73 1012.9
20260507140727 11 268 0.0 0.0 0.00 0.00 0.00 73 1012.7
20260507140307 11 251 0.0 0.0 0.00 0.00 0.00 74 1012.7
20260507135745 11 194 0.0 0.0 0.00 0.00 0.00 74 1012.6
20260507135245 10 256 0.0 0.0 0.00 0.00 0.00 76 1012.7
20260507134733 10 257 0.0 0.0 0.00 0.00 0.00 77 1012.6
20260507134234 10 246 0.0 0.0 0.00 0.00 0.00 78 1012.6
20260507133734 9 247 0.0 0.0 0.00 0.00 0.00 80 1012.7
20260507133235 9 259 0.0 0.0 0.00 0.00 0.00 80 1012.8
20260507132736 9 245 0.0 0.0 0.00 0.00 0.00 80 1012.8
20260507132240 9 262 0.0 0.0 0.00 0.00 0.00 80 1012.9
20260507131731 9 240 0.0 0.0 0.00 0.00 0.00 81 1012.8
20260507131232 9 261 0.0 0.0 0.00 0.00 0.00 81 1012.8
20260507130729 8 247 0.0 0.0 0.00 0.00 0.00 82 1012.8
20260507130233 8 246 0.0 0.0 0.00 0.00 0.00 82 1012.9
20260507125751 8 251 0.0 0.0 0.00 0.00 0.00 81 1013.1
20260507125251 8 256 0.0 0.0 0.00 0.00 0.00 82 1013.1
20260507124741 8 263 0.0 0.0 0.00 0.00 0.00 82 1013.2
20260507124240 8 270 0.0 0.0 0.00 0.00 0.00 83 1013.2
20260507123740 8 285 0.0 0.0 0.00 0.00 0.00 82 1013.3
20260507123240 8 256 0.0 0.0 0.00 0.00 0.00 82 1013.3
20260507122741 8 290 0.0 0.0 0.00 0.00 0.00 82 1013.4
20260507122306 8 126 0.0 0.0 0.00 0.00 0.00 82 1013.4
20260507121731 8 126 0.0 0.0 0.00 0.00 0.00 82 1013.4
20260507121233 8 126 0.0 0.0 0.00 0.00 0.00 81 1013.4
20260507120732 8 126 0.0 0.0 0.00 0.00 0.00 81 1013.4
20260507120253 8 126 0.0 0.0 0.00 0.00 0.00 80 1013.4
20260507115732 8 126 0.0 0.0 0.00 0.00 0.00 80 1013.3
20260507115253 8 127 0.0 0.0 0.00 0.00 0.00 80 1013.3
20260507114743 8 157 0.0 0.0 0.00 0.00 0.00 80 1013.3
20260507114259 8 157 0.0 0.0 0.00 0.00 0.00 80 1013.3
20260507113738 8 157 0.0 0.0 0.00 0.00 0.00 82 1013.2
20260507113235 8 166 0.0 0.0 0.00 0.00 0.00 79 1013.2
20260507112756 8 245 0.0 0.0 0.00 0.00 0.00 79 1013.2
20260507112241 8 245 0.0 0.0 0.00 0.00 0.00 78 1013.2
20260507111731 9 246 0.0 0.0 0.00 0.00 0.00 78 1013.2
20260507111232 10 240 0.0 0.0 0.00 0.00 0.00 77 1013.0
20260507110733 10 251 0.0 0.0 0.00 0.00 0.00 76 1013.0
20260507110230 10 252 0.0 0.0 0.00 0.00 0.00 75 1013.1
20260507105730 10 285 0.0 0.0 0.00 0.00 0.00 73 1013.2
20260507105312 10 312 0.0 0.0 0.00 0.00 0.00 73 1013.1
20260507104742 10 241 0.0 0.0 0.00 0.00 0.00 74 1013.1
20260507104243 10 263 0.0 0.0 0.00 0.00 0.00 74 1013.0
20260507103741 10 274 0.0 0.0 0.00 0.00 0.00 73 1012.9
20260507103242 10 200 0.0 0.0 0.00 0.00 0.00 75 1012.9
20260507102740 10 166 0.0 0.0 0.00 0.00 0.00 75 1013.0
20260507102258 10 166 0.0 0.0 0.00 0.00 0.00 75 1013.0
20260507101806 10 166 0.0 0.0 0.00 0.00 0.00 76 1012.9
20260507101243 10 159 0.0 0.0 0.00 0.00 0.00 76 1012.9
20260507100744 11 170 0.0 0.0 0.00 0.00 0.00 73 1012.8
20260507100242 11 229 0.0 0.0 0.00 0.00 0.00 73 1012.7
20260507095739 11 251 0.0 0.0 0.00 0.00 0.00 73 1012.8
20260507095240 11 267 0.0 0.0 0.00 0.00 0.00 72 1012.7
20260507094734 11 281 0.0 0.0 0.00 0.00 0.00 72 1012.8
20260507094254 11 321 0.0 0.0 0.00 0.00 0.00 73 1012.9
20260507093733 11 321 0.0 0.0 0.00 0.00 0.00 72 1013.0
20260507093233 11 322 0.0 0.0 0.00 0.00 0.00 72 1013.0
20260507092734 11 312 0.0 0.0 0.00 0.00 0.00 69 1013.0
20260507092316 11 289 0.0 0.0 0.00 0.00 0.00 67 1012.8
20260507091744 11 256 0.0 0.0 0.00 0.00 0.00 66 1012.8
20260507091306 12 180 0.0 0.0 0.00 0.00 0.00 66 1012.8
20260507090727 12 180 0.0 0.0 0.00 0.00 0.00 66 1012.9
20260507090228 12 180 0.0 0.0 0.00 0.00 0.00 66 1012.9
20260507085729 12 180 0.0 0.0 0.00 0.00 0.00 66 1012.9
20260507085252 12 264 0.0 0.0 0.00 0.00 0.00 66 1013.0
20260507084742 12 160 0.0 0.0 0.00 0.00 0.00 67 1012.9
20260507084242 11 162 0.0 0.0 0.00 0.00 0.00 67 1012.8
20260507083758 11 168 0.0 0.0 0.00 0.00 0.00 70 1013.0
20260507083238 12 199 0.0 0.0 0.00 0.00 0.00 67 1012.9
20260507082739 12 162 0.0 0.0 0.00 0.00 0.00 67 1013.0
20260507082238 12 154 0.0 0.0 0.00 0.00 0.00 66 1012.9
20260507081730 12 165 0.0 0.0 0.00 0.00 0.00 67 1013.0
20260507081229 12 162 0.0 0.0 0.00 0.00 0.00 67 1013.0
20260507080746 12 169 0.0 0.0 0.00 0.00 0.00 67 1013.0
20260507080243 12 319 0.0 0.0 0.00 0.00 0.00 66 1013.0
20260507075804 12 244 0.0 0.0 0.00 0.00 0.00 67 1013.3
20260507075242 12 154 0.0 0.0 0.00 0.00 0.00 67 1013.2
20260507074728 12 284 0.0 0.0 0.00 0.00 0.00 67 1013.2
20260507074249 12 331 0.0 0.0 0.00 0.00 0.00 67 1013.1
20260507073730 12 331 0.0 0.0 0.00 0.00 0.00 67 1013.0
20260507073230 12 331 0.0 0.0 0.00 0.00 0.00 67 1013.0
20260507072729 12 331 0.0 0.0 0.00 0.00 0.00 66 1013.0
20260507072251 12 283 0.0 0.0 0.00 0.00 0.00 64 1013.0
20260507071743 12 282 0.0 0.0 0.00 0.00 0.00 63 1013.0
20260507071242 12 286 0.0 0.0 0.00 0.00 0.00 62 1013.0
20260507070743 12 292 0.0 0.0 0.00 0.00 0.00 63 1013.0
20260507070244 12 296 0.0 0.0 0.00 0.00 0.00 61 1013.0
20260507065743 12 248 0.0 0.0 0.00 0.00 0.00 61 1013.0
20260507065244 12 262 0.0 0.0 0.00 0.00 0.00 61 1012.9
20260507064734 12 253 0.0 0.0 0.00 0.00 0.00 61 1013.0
20260507064240 13 272 0.0 0.0 0.00 0.00 0.00 61 1013.2
20260507063740 13 279 0.0 0.0 0.00 0.00 0.00 61 1013.1
20260507063238 13 284 0.0 0.0 0.00 0.00 0.00 62 1013.2
20260507062759 13 295 0.0 0.0 0.00 0.00 0.00 62 1013.2
20260507062241 13 295 0.0 0.0 0.00 0.00 0.00 61 1013.2
20260507061752 13 296 0.0 0.0 0.00 0.00 0.00 59 1013.3
20260507061252 13 294 0.0 0.0 0.00 0.00 0.00 59 1013.3
20260507060732 13 294 0.0 0.0 0.00 0.00 0.00 59 1013.2
20260507060235 13 282 0.0 0.0 0.00 0.00 0.00 59 1013.2
20260507055730 13 292 0.0 0.0 0.00 0.00 0.00 56 1013.0
20260507055251 14 296 0.0 0.0 0.00 0.00 0.00 56 1013.2
20260507054743 14 301 0.0 0.0 0.00 0.00 0.00 56 1013.1
20260507054244 14 296 0.0 0.0 0.00 0.00 0.00 55 1013.0
20260507053725 14 307 0.0 0.0 0.00 0.00 0.00 54 1012.9
20260507053246 14 298 0.0 0.0 0.00 0.00 0.00 55 1013.0
20260507052726 15 294 0.0 0.0 0.00 0.00 0.00 51 1012.9
20260507052310 15 301 0.0 0.0 0.00 0.00 0.00 54 1013.0
20260507051740 15 291 0.0 0.0 0.00 0.00 0.00 51 1013.0
20260507051239 15 309 0.0 1.6 0.00 0.00 0.00 51 1013.0
20260507050744 15 310 0.0 0.0 0.00 0.00 0.00 49 1012.9
20260507050244 16 307 0.0 0.0 0.00 0.00 0.00 48 1012.9
20260507045745 16 279 0.0 1.6 0.00 0.00 0.00 46 1013.0
20260507045246 16 302 0.0 0.0 0.00 0.00 0.00 47 1013.0
20260507044737 16 301 0.0 0.0 0.00 0.00 0.00 46 1012.8
20260507044239 16 295 0.0 0.0 0.00 0.00 0.00 45 1012.7
20260507043742 16 271 0.0 0.0 0.00 0.00 0.00 46 1012.8
20260507043242 16 304 0.0 0.0 0.00 0.00 0.00 46 1012.6
20260507042741 16 309 0.0 1.6 0.00 0.00 0.00 47 1012.7
20260507042306 16 283 0.0 1.6 0.00 0.00 0.00 46 1012.7
20260507041730 16 294 0.0 0.0 0.00 0.00 0.00 46 1012.7
20260507041232 16 285 0.0 1.6 0.00 0.00 0.00 46 1012.6
20260507040731 17 273 0.0 1.6 0.00 0.00 0.00 45 1012.6
20260507040231 17 313 0.0 1.6 0.00 0.00 0.00 44 1012.6
20260507035734 17 279 0.0 1.6 0.00 0.00 0.00 44 1012.4
20260507035235 17 282 0.0 1.6 0.00 0.00 0.00 43 1012.4
20260507034727 17 289 0.0 1.6 0.00 0.00 0.00 43 1012.4
20260507034228 17 277 0.0 1.6 0.00 0.00 0.00 43 1012.4
20260507033727 17 299 0.0 3.2 0.00 0.00 0.00 44 1012.4
20260507033227 17 287 0.0 3.2 0.00 0.00 0.00 43 1012.3
20260507032731 17 272 0.0 4.8 0.00 0.00 0.00 44 1012.3
20260507032253 17 291 0.0 4.8 0.00 0.00 0.00 44 1012.3
20260507031744 17 273 0.0 4.8 0.00 0.00 0.00 43 1012.4
20260507031243 17 293 0.0 4.8 0.00 0.00 0.00 43 1012.4
20260507030804 17 283 0.0 3.2 0.00 0.00 0.00 42 1012.3
20260507030242 17 266 0.0 3.2 0.00 0.00 0.00 42 1012.4
20260507025744 18 268 0.0 3.2 0.00 0.00 0.00 41 1012.3
20260507025244 18 268 0.0 3.2 0.00 0.00 0.00 41 1012.4
20260507024734 18 287 0.0 1.6 0.00 0.00 0.00 41 1012.4
20260507024239 18 285 0.0 3.2 0.00 0.00 0.00 40 1012.3
20260507023800 18 295 0.0 3.2 0.00 0.00 0.00 40 1012.4
20260507023240 18 290 0.0 1.6 0.00 0.00 0.00 44 1012.3
20260507022740 18 287 0.0 1.6 0.00 0.00 0.00 44 1012.3
20260507022242 18 300 0.0 1.6 0.00 0.00 0.00 45 1012.2
20260507021734 18 300 0.0 0.0 0.00 0.00 0.00 46 1012.2
20260507021233 17 318 0.0 0.0 0.00 0.00 0.00 46 1012.2
20260507020734 17 304 0.0 1.6 0.00 0.00 0.00 47 1012.1
20260507020234 17 313 0.0 1.6 0.00 0.00 0.00 46 1012.1
20260507015737 17 310 0.0 1.6 0.00 0.00 0.00 47 1012.2
20260507015259 17 309 0.0 1.6 0.00 0.00 0.00 47 1012.1
20260507014727 18 305 0.0 1.6 0.00 0.00 0.00 46 1012.2
20260507014227 18 329 0.0 1.6 0.00 0.00 0.00 45 1012.1
20260507013730 18 307 0.0 1.6 0.00 0.00 0.00 45 1012.2
20260507013230 18 302 0.0 1.6 0.00 0.00 0.00 44 1012.2
20260507012734 18 308 0.0 0.0 0.00 0.00 0.00 45 1012.3
20260507012237 18 295 0.0 1.6 0.00 0.00 0.00 43 1012.2
20260507011728 18 303 0.0 1.6 0.00 0.00 0.00 42 1012.2
20260507011229 18 287 0.0 1.6 0.00 0.00 0.00 41 1012.3
20260507010728 19 308 0.0 0.0 0.00 0.00 0.00 41 1012.3
20260507010250 19 315 0.0 6.4 0.00 0.00 0.00 40 1012.3
20260507005728 20 320 0.0 6.4 0.00 0.00 0.00 39 1012.3
20260507005249 20 300 0.0 1.6 0.00 0.00 0.00 38 1012.2
20260507004759 20 317 0.0 3.2 0.00 0.00 0.00 39 1012.3
20260507004239 20 309 0.0 3.2 0.00 0.00 0.00 38 1012.3
20260507003738 20 319 0.0 1.6 0.00 0.00 0.00 38 1012.1
20260507003241 20 322 0.0 0.0 0.00 0.00 0.00 37 1012.1
20260507002743 20 325 0.0 1.6 0.00 0.00 0.00 37 1012.1
20260507002235 20 322 0.0 1.6 0.00 0.00 0.00 38 1012.1
20260507001800 20 328 0.0 3.2 0.00 0.00 0.00 37 1012.0
20260507001239 20 309 0.0 3.2 0.00 0.00 0.00 38 1011.9
20260507000740 21 311 0.0 1.6 0.00 0.00 0.00 38 1011.9
20260507000246 21 301 0.0 6.4 0.00 0.00 0.00 38 1011.9
20260506235747 21 289 0.0 6.4 0.00 0.00 0.00 39 1011.8
20260506235250 21 313 0.0 1.6 0.00 0.00 0.00 40 1011.8
20260506234741 21 323 0.0 1.6 0.00 0.00 0.00 38 1011.9
20260506234241 21 325 0.0 1.6 0.00 0.00 0.00 38 1011.9
20260506233741 21 318 0.0 0.0 0.00 0.00 0.00 38 1012.0
20260506233243 21 327 0.0 0.0 0.00 0.00 0.00 39 1012.1
20260506232744 21 299 0.0 0.0 0.00 0.00 0.00 38 1012.1
20260506232246 21 294 0.0 0.0 0.00 0.00 0.00 38 1012.1
20260506231738 21 300 0.0 0.0 0.00 0.00 0.00 37 1012.1
20260506231238 21 310 0.0 3.2 0.00 0.00 0.00 38 1012.1
20260506230739 21 297 0.0 3.2 0.00 0.00 0.00 38 1012.1
20260506230238 21 282 0.0 4.8 0.00 0.00 0.00 37 1012.2
20260506225741 21 289 0.0 9.7 0.00 0.00 0.00 37 1012.1
20260506225241 21 305 0.0 9.7 0.00 0.00 0.00 36 1012.1
20260506224732 22 309 0.0 9.7 0.00 0.00 0.00 38 1012.2
20260506224231 21 277 0.0 9.7 0.00 0.00 0.00 35 1012.3
20260506223738 21 283 0.0 3.2 0.00 0.00 0.00 35 1012.5
20260506223239 22 280 0.0 3.2 0.00 0.00 0.00 35 1012.6
20260506222739 22 298 0.0 0.0 0.00 0.00 0.00 34 1012.6
20260506222241 22 286 0.0 0.0 0.00 0.00 0.00 33 1012.6
20260506221731 22 300 0.0 0.0 0.00 0.00 0.00 34 1012.5
20260506221231 22 315 0.0 0.0 0.00 0.00 0.00 35 1012.6
20260506220731 22 319 0.0 0.0 0.00 0.00 0.00 36 1012.6
20260506220232 22 311 0.0 0.0 0.00 0.00 0.00 35 1012.5
20260506215751 23 286 0.0 0.0 0.00 0.00 0.00 34 1012.5
20260506215252 23 315 0.0 0.0 0.00 0.00 0.00 34 1012.5
20260506214742 22 307 0.0 12.9 0.00 0.00 0.00 35 1012.5
20260506214242 22 309 0.0 12.9 0.00 0.00 0.00 33 1012.4
20260506213742 23 302 0.0 0.0 0.00 0.00 0.00 33 1012.5
20260506213242 23 294 0.0 0.0 0.00 0.00 0.00 34 1012.4
20260506212727 22 316 0.0 0.0 0.00 0.00 0.00 35 1012.3
20260506212248 22 283 0.0 16.1 0.00 0.00 0.00 35 1012.5
20260506211739 22 281 1.6 16.1 0.00 0.00 0.00 35 1012.4
20260506211241 22 317 0.0 1.6 0.00 0.00 0.00 35 1012.4
20260506210742 22 324 0.0 6.4 0.00 0.00 0.00 39 1012.4
20260506210243 22 319 0.0 6.4 0.00 0.00 0.00 35 1012.4
20260506205744 22 279 0.0 3.2 0.00 0.00 0.00 39 1012.5
20260506205244 22 315 0.0 1.6 0.00 0.00 0.00 41 1012.4
20260506204735 22 317 0.0 0.0 0.00 0.00 0.00 40 1012.5
20260506204236 22 307 0.0 0.0 0.00 0.00 0.00 41 1012.6
20260506203737 22 328 0.0 0.0 0.00 0.00 0.00 40 1012.6
20260506203300 22 296 0.0 0.0 0.00 0.00 0.00 39 1012.6
20260506202759 22 306 0.0 4.8 0.00 0.00 0.00 39 1012.4
20260506202318 22 267 0.0 4.8 0.00 0.00 0.00 40 1012.5
20260506201726 22 300 0.0 16.1 0.00 0.00 0.00 37 1012.4
20260506201226 22 299 0.0 16.1 0.00 0.00 0.00 36 1012.4
20260506200808 22 273 0.0 3.2 0.00 0.00 0.00 41 1012.3
20260506200227 21 290 0.0 0.0 0.00 0.00 0.00 43 1012.3
20260506195728 21 308 0.0 1.6 0.00 0.00 0.00 44 1012.5
20260506195250 21 286 0.0 1.6 0.00 0.00 0.00 44 1012.4
20260506194759 21 262 0.0 0.0 0.00 0.00 0.00 48 1012.4
20260506194241 21 267 0.0 1.6 0.00 0.00 0.00 48 1012.5
20260506193742 20 297 0.0 12.9 0.00 0.00 0.00 50 1012.4
20260506193243 20 291 1.6 12.9 0.00 0.00 0.00 50 1012.3
20260506192743 20 295 0.0 41.8 0.00 0.00 0.00 51 1012.2
20260506192245 20 310 0.0 41.8 0.00 0.00 0.00 51 1012.2
20260506191756 20 301 1.6 16.1 0.00 0.00 0.00 51 1012.1
20260506191236 20 266 0.0 0.0 0.00 0.00 0.00 51 1012.2
20260506190736 20 285 0.0 0.0 0.00 0.00 0.00 52 1012.4
20260506190258 20 296 0.0 0.0 0.00 0.00 0.00 53 1012.3
20260506185738 19 306 0.0 0.0 0.00 0.00 0.00 53 1012.4
20260506185240 19 300 0.0 0.0 0.00 0.00 0.00 52 1012.4
20260506184731 19 307 0.0 0.0 0.00 0.00 0.00 54 1012.3
20260506184232 18 285 0.0 9.7 0.00 0.00 0.00 55 1012.3
20260506183736 18 311 0.0 9.7 0.00 0.00 0.00 54 1012.3
20260506183235 18 307 0.0 0.0 0.00 0.00 0.00 54 1012.4
20260506182735 18 305 0.0 0.0 0.00 0.00 0.00 55 1012.4
20260506182241 18 309 0.0 3.2 0.00 0.00 0.00 54 1012.6
20260506181733 19 318 0.0 3.2 0.00 0.00 0.00 53 1012.6
20260506181233 19 307 0.0 3.2 0.00 0.00 0.00 53 1012.5
20260506180755 20 295 0.0 0.0 0.00 0.00 0.00 52 1012.6
20260506180234 20 308 0.0 0.0 0.00 0.00 0.00 53 1012.7
20260506175733 19 287 0.0 0.0 0.00 0.00 0.00 53 1012.6
20260506175254 19 284 0.0 8.0 0.00 0.00 0.00 53 1012.7
20260506174724 19 290 0.0 8.0 0.00 0.00 0.00 51 1012.7
20260506174244 19 259 0.0 0.0 0.00 0.00 0.00 52 1012.7
20260506173744 18 145 0.0 0.0 0.00 0.00 0.00 54 1012.7
20260506173303 18 257 0.0 0.0 0.00 0.00 0.00 54 1012.6
20260506172742 18 258 0.0 0.0 0.00 0.00 0.00 52 1012.6